GW7365 Weather Reports


time (UTC)temp
F
wind
direction
speed
knots
gust
knots
rain 1hr
in
rain 24hr
in
rain mn
in
humidity
%
barometer
mb
20260505062131 49 29 11.3 15.6 0.00 0.00 0.00 98 1011.2
20260505061631 49 25 8.7 15.6 0.00 0.00 0.00 98 1011.2
20260505061132 49 37 7.8 13.0 0.00 0.00 0.00 99 1011.4
20260505060631 49 34 9.6 13.0 0.00 0.00 0.00 99 1011.5
20260505060417 49 28 10.4 13.0 0.00 0.00 0.00 98 1011.4
20260505055631 49 12 10.4 13.9 0.00 0.00 0.00 99 1011.3
20260505055131 49 24 11.3 15.6 0.00 0.00 0.00 99 1011.3
20260505054631 49 13 11.3 15.6 0.00 0.00 0.00 98 1011.4
20260505054132 49 31 10.4 16.5 0.00 0.00 0.00 98 1011.4
20260505053905 49 20 10.4 16.5 0.00 0.00 0.00 99 1011.5
20260505053147 49 18 10.4 14.8 0.00 0.00 0.00 99 1011.1
20260505053142 49 23 9.6 14.8 0.00 0.00 0.00 98 1011.2
20260505052131 49 8 9.6 13.9 0.00 0.00 0.00 98 1011.0
20260505051902 49 14 10.4 14.8 0.00 0.00 0.00 99 1011.1
20260505051407 49 16 11.3 16.5 0.00 0.00 0.00 98 1010.9
20260505050631 49 12 10.4 16.5 0.00 0.00 0.00 98 1010.9
20260505050131 49 18 10.4 17.4 0.00 0.00 0.00 99 1011.0
20260505041128 49 16 11.3 15.6 0.00 0.00 0.00 97 1010.9
20260505040629 49 13 9.6 13.0 0.00 0.00 0.00 97 1010.9
20260505040129 50 20 9.6 13.0 0.00 0.00 0.00 97 1011.0
20260505035629 50 2 10.4 13.9 0.00 0.00 0.00 96 1010.9
20260505035129 50 12 10.4 13.9 0.00 0.00 0.00 96 1010.8
20260505034914 50 11 10.4 13.9 0.00 0.00 0.00 97 1010.9
20260505034129 50 7 9.6 13.0 0.00 0.00 0.00 97 1010.9
20260505033628 50 14 10.4 15.6 0.00 0.00 0.00 97 1011.0
20260505033404 50 350 11.3 15.6 0.00 0.00 0.00 97 1011.0
20260505032629 50 12 12.2 17.4 0.00 0.00 0.00 97 1011.1
20260505032129 50 5 12.2 17.4 0.00 0.00 0.00 96 1011.2
20260505031629 50 2 11.3 16.5 0.00 0.00 0.00 97 1010.9
20260505031129 50 1 9.6 13.9 0.00 0.00 0.00 96 1010.9
20260505030627 50 357 9.6 14.8 0.00 0.00 0.00 96 1011.0
20260505030133 50 3 9.6 14.8 0.00 0.00 0.00 96 1010.9
20260505025632 50 10 10.4 13.9 0.00 0.00 0.00 95 1010.9
20260505025128 50 7 9.6 13.0 0.00 0.00 0.00 95 1011.0
20260505024627 50 11 9.6 13.0 0.00 0.00 0.00 95 1011.1
20260505024407 50 0 9.6 14.8 0.00 0.00 0.00 95 1011.1
20260505023624 50 6 9.6 14.8 0.00 0.00 0.00 95 1011.1
20260505023356 50 8 10.4 13.9 0.00 0.00 0.00 95 1011.2
20260505022625 50 7 10.4 14.8 0.00 0.00 0.00 94 1011.2
20260505022355 50 3 11.3 15.6 0.00 0.00 0.00 94 1011.2
20260505021621 50 9 11.3 18.2 0.00 0.00 0.00 94 1011.2
20260505021122 50 1 12.2 18.2 0.00 0.00 0.00 94 1011.0
20260505020852 50 4 12.2 18.2 0.00 0.00 0.00 94 1011.0
20260505020119 50 354 11.3 16.5 0.00 0.00 0.00 94 1011.1
20260505015619 50 359 11.3 15.6 0.00 0.00 0.00 94 1010.9
20260505015119 50 13 10.4 14.8 0.00 0.00 0.00 95 1011.1
20260505014619 51 359 11.3 16.5 0.00 0.00 0.00 95 1011.3
20260505014119 51 3 12.2 17.4 0.00 0.00 0.00 94 1011.2
20260505013619 51 6 12.2 18.2 0.00 0.00 0.00 93 1011.3
20260505013119 51 14 12.2 18.2 0.00 0.00 0.00 94 1011.2
20260505012618 51 5 10.4 15.6 0.00 0.00 0.00 95 1011.4
20260505012402 51 1 10.4 16.5 0.00 0.00 0.00 94 1011.4
20260505011619 51 338 10.4 16.5 0.00 0.00 0.00 94 1011.3
20260505011119 51 328 9.6 15.6 0.00 0.00 0.00 94 1011.3
20260505010619 51 2 9.6 14.8 0.00 0.00 0.00 94 1011.5
20260505010123 51 10 11.3 17.4 0.00 0.00 0.00 94 1011.4
20260505005620 51 351 12.2 17.4 0.00 0.00 0.00 94 1011.6
20260505005119 51 5 11.3 15.6 0.00 0.00 0.00 94 1011.5
20260505004619 51 351 11.3 17.4 0.00 0.00 0.00 94 1011.7
20260505004119 51 341 11.3 17.4 0.00 0.00 0.00 94 1011.6
20260505003620 51 3 9.6 14.8 0.00 0.00 0.00 94 1011.6
20260505003120 52 327 8.7 13.0 0.00 0.00 0.00 94 1011.5
20260505002632 52 10 8.7 17.4 0.00 0.00 0.00 95 1011.8
20260505002628 52 27 8.7 13.0 0.00 0.00 0.00 94 1011.7
20260505001620 52 2 9.6 17.4 0.00 0.00 0.00 94 1011.8
20260505001119 52 23 9.6 17.4 0.00 0.00 0.00 94 1011.7
20260505000620 52 347 8.7 21.7 0.00 0.00 0.00 94 1011.7
20260505000120 52 355 11.3 21.7 0.00 0.00 0.00 94 1011.8
20260504235617 53 17 11.3 21.7 0.00 0.00 0.00 92 1011.6
20260504235115 53 356 10.4 18.2 0.00 0.00 0.00 95 1011.8
20260504234615 53 3 12.2 18.2 0.00 0.00 0.00 94 1011.7
20260504234115 53 4 9.6 14.8 0.00 0.00 0.00 94 1011.9
20260504233614 53 357 8.7 13.9 0.00 0.00 0.00 94 1012.0
20260504233115 53 346 8.7 13.0 0.00 0.00 0.00 94 1012.0
20260504232615 53 357 9.6 16.5 0.00 0.00 0.00 94 1012.1
20260504232114 53 359 9.6 16.5 0.00 0.00 0.00 93 1012.1
20260504231615 53 345 8.7 14.8 0.00 0.00 0.00 93 1012.2
20260504231115 53 3 8.7 14.8 0.00 0.00 0.00 94 1012.1
20260504230615 53 348 8.7 14.8 0.00 0.00 0.00 94 1012.1
20260504230115 53 10 7.8 15.6 0.00 0.00 0.00 94 1012.2
20260504225615 53 353 7.8 15.6 0.00 0.00 0.00 94 1012.1
20260504225115 53 359 8.7 15.6 0.00 0.00 0.00 94 1012.0
20260504224613 53 351 8.7 15.6 0.00 0.00 0.00 93 1012.2
20260504224113 54 324 8.7 14.8 0.00 0.00 0.00 94 1012.1
20260504223612 54 343 8.7 14.8 0.00 0.00 0.00 93 1012.2
20260504223113 54 7 9.6 16.5 0.00 0.00 0.00 94 1012.1
20260504222613 54 317 9.6 16.5 0.00 0.00 0.00 94 1012.1
20260504222112 54 303 11.3 17.4 0.00 0.00 0.00 94 1012.2
20260504221613 54 9 12.2 17.4 0.00 0.00 0.00 93 1012.1
20260504221113 54 0 12.2 17.4 0.00 0.00 0.00 93 1012.1
20260504220614 54 4 11.3 16.5 0.00 0.00 0.00 93 1012.1
20260504220113 54 3 10.4 14.8 0.00 0.00 0.00 93 1012.3
20260504215613 54 16 10.4 14.8 0.00 0.00 0.00 93 1012.3
20260504215114 54 9 10.4 15.6 0.00 0.00 0.00 92 1012.3
20260504214613 54 6 10.4 15.6 0.00 0.00 0.00 93 1012.4
20260504214344 54 1 10.4 15.6 0.00 0.00 0.00 93 1012.5
20260504213610 54 30 9.6 15.6 0.00 0.00 0.00 93 1012.4
20260504213110 55 4 9.6 17.4 0.00 0.00 0.00 93 1012.5
20260504212610 55 5 10.4 17.4 0.00 0.00 0.00 92 1012.4
20260504212110 55 2 10.4 16.5 0.00 0.00 0.00 93 1012.6
20260504211612 55 5 9.6 16.5 0.00 0.00 0.00 92 1012.5
20260504211348 55 346 8.7 12.2 0.00 0.00 0.00 93 1012.5
20260504210611 55 351 8.7 13.9 0.00 0.00 0.00 94 1012.6
20260504210112 55 342 9.6 13.9 0.00 0.00 0.00 94 1012.7
20260504205611 55 3 9.6 14.8 0.00 0.00 0.00 94 1012.6
20260504205115 55 1 9.6 15.6 0.00 0.00 0.00 94 1012.6
20260504204847 55 0 9.6 15.6 0.00 0.00 0.00 94 1012.5
20260504204111 55 355 9.6 14.8 0.00 0.00 0.00 94 1012.6
20260504203611 55 2 9.6 13.9 0.00 0.00 0.00 94 1012.6
20260504203108 55 8 9.6 14.8 0.00 0.00 0.00 94 1012.6
20260504202609 55 1 9.6 14.8 0.00 0.00 0.00 93 1012.6
20260504202109 55 353 8.7 12.2 0.00 0.00 0.00 94 1012.5
20260504201609 55 5 8.7 14.8 0.00 0.00 0.00 93 1012.4
20260504201345 55 7 9.6 14.8 0.00 0.00 0.00 93 1012.4
20260504200609 56 11 9.6 14.8 0.00 0.00 0.00 92 1012.2
20260504200343 56 14 8.7 13.9 0.00 0.00 0.00 92 1012.3
20260504195609 56 16 8.7 13.0 0.00 0.00 0.00 93 1012.3
20260504195110 56 13 8.7 13.0 0.00 0.00 0.00 93 1012.3
20260504194609 56 1 9.6 15.6 0.00 0.00 0.00 93 1012.2
20260504194109 56 2 10.4 15.6 0.00 0.00 0.00 93 1012.2
20260504193609 56 12 11.3 13.9 0.00 0.00 0.00 93 1012.2
20260504193106 56 2 11.3 13.9 0.00 0.00 0.00 92 1012.2
20260504192611 56 3 10.4 13.9 0.00 0.00 0.00 92 1012.0
20260504192107 56 0 9.6 13.9 0.00 0.00 0.00 93 1012.0
20260504191608 56 6 10.4 16.5 0.00 0.00 0.00 93 1012.1
20260504191107 56 8 11.3 16.5 0.00 0.00 0.00 93 1012.1
20260504190608 56 10 11.3 14.8 0.00 0.00 0.00 92 1011.9
20260504190107 56 6 11.3 15.6 0.00 0.00 0.00 92 1011.9
20260504185614 57 359 13.0 17.4 0.00 0.00 0.00 92 1011.8
20260504185610 56 358 13.0 17.4 0.00 0.00 0.00 91 1012.0
20260504184608 57 5 11.3 15.6 0.00 0.00 0.00 91 1011.8
20260504184108 57 1 8.7 13.9 0.00 0.00 0.00 92 1011.8
20260504183602 57 14 9.6 14.8 0.00 0.00 0.00 93 1012.0
20260504183105 57 2 10.4 14.8 0.00 0.00 0.00 92 1011.9
20260504182604 57 16 9.6 13.0 0.00 0.00 0.00 92 1011.9
20260504182104 57 359 10.4 16.5 0.00 0.01 0.00 92 1012.0
20260504181603 58 10 11.3 16.5 0.00 0.03 0.00 92 1012.0
20260504181347 58 6 11.3 16.5 0.00 0.03 0.00 91 1011.9
20260504180603 58 7 11.3 16.5 0.00 0.03 0.00 91 1011.8
20260504180337 58 9 11.3 18.2 0.00 0.03 0.00 92 1011.7
20260504175603 58 11 11.3 18.2 0.00 0.03 0.00 92 1011.9
20260504175102 58 11 11.3 16.5 0.00 0.03 0.00 91 1011.8
20260504174603 59 7 10.4 16.5 0.00 0.03 0.00 92 1011.8
20260504174103 59 6 9.6 14.8 0.00 0.03 0.00 92 1011.8
20260504173848 59 359 8.7 13.0 0.00 0.03 0.00 90 1011.8
20260504173103 59 351 8.7 13.9 0.00 0.03 0.00 90 1011.8
20260504172603 59 358 9.6 14.8 0.00 0.03 0.00 90 1011.8
20260504172103 60 358 8.7 14.8 0.00 0.03 0.00 89 1011.8
20260504171601 60 2 8.7 14.8 0.00 0.03 0.00 90 1011.9
20260504171101 60 5 8.7 14.8 0.00 0.03 0.00 89 1011.8
20260504170856 60 6 11.3 16.5 0.00 0.05 0.00 89 1011.6
20260504170852 60 15 9.6 16.5 0.00 0.04 0.00 89 1011.8
20260504151056 65 3 1.7 4.3 0.00 0.07 0.00 74 1011.7
20260504150556 65 349 1.7 4.3 0.00 0.07 0.00 74 1011.7
20260504141053 64 328 1.7 2.6 0.00 0.10 0.00 74 1012.2
20260504140550 64 19 1.7 3.5 0.00 0.10 0.00 74 1012.3
20260504130545 63 346 0.9 3.5 0.00 0.10 0.00 84 1012.4
20260504130314 62 287 1.7 3.5 0.00 0.10 0.00 85 1012.4
20260504110539 63 339 3.5 5.2 0.00 0.17 0.00 81 1012.7
20260504100538 62 19 0.9 3.5 0.00 0.25 0.00 83 1012.9
20260504081535 58 144 0.9 2.6 0.00 0.27 0.00 99 1012.6
20260504081037 58 0 0.9 2.6 0.00 0.27 0.00 100 1012.6
20260504080534 58 170 0.9 2.6 0.00 0.27 0.00 99 1012.6
20260504080304 57 0 0.9 2.6 0.00 0.27 0.00 99 1012.5